{"data":{"norad_id":62410,"intl_designator":"2024-249B","name":"STARLINK-11493 [DTC]","alt_names":[],"object_type":"PAYLOAD","status":"ACTIVE","operator":null,"country":"US","launch_date":"2024-12-23","launch_site_code":"AFETR","launch_vehicle":null,"mission":null,"orbit_class":"UNKNOWN","rcs_meters":null,"size_class":null,"mass_kg":null,"dimensions":null,"purposes":["comms"],"wikipedia_slug":null,"has_3d_model":false,"image_url":null,"decayed_at":null,"tle_current":{"epoch":"2026-05-25T03:55:17.681376Z","epoch_age_seconds":71515,"freshness":"FRESH","line1":"1 62410U 24249B   26145.16339909  .00269470  00000+0  20152-2 0  9991","line2":"2 62410  43.0014  67.0843 0008034 244.2670 115.7369 15.71056775 81505","mean_motion":15.71056775,"eccentricity":0.0008034,"inclination_deg":43.0014,"raan_deg":67.0843,"arg_perigee_deg":244.267,"mean_anomaly_deg":115.7369,"bstar":0.0020152,"rev_number":8150,"period_min":91.658049722614,"perigee_km":350.4654436094,"apogee_km":361.2856549736,"semimajor_km":6734.0125492915,"source":"CELESTRAK","updated_at":"2026-05-25T13:38:19.652130Z"}}}